Location: Goll?ig?dem
(16.6773°N, 80.7332°E)
Time: 14:47:40
(UTC+00:00)

GPS 2-17 Rocket1 - Pass Details

Date: 19 May 2025
Orbit: 549 x 622 km, 20.3° (Epoch: 17 June)

Event Time Altitude Azimuth Distance (km) Brightness Sun altitude
Rises 14:31:00 0° 243° (WSW) 2,787 6.9 -20.1°
Reaches altitude 10° 14:33:24 10° 238° (WSW) 1,875 5.9 -20.6°
Enters shadow 14:37:14 48° 182° (S) 745 3.2 -21.4°
